Regional Weather Roundup
Issued by NWS

Home | Current Version | Previous Version | Text Only | Print | Product List | Glossary Off
Versions: 1 2 3 4 5 6 7 8 9 10 11 12 13 14 15 16 17 18 19 20 21 22 23 24 25 26 27 28 29 30 31 32 33 34 35 36 37 38 39 40 41 42 43 44 45 46 47 48 49 50

000
ASUS45 KCYS 250510
RWRWY

WYOMING REGIONAL WEATHER ROUNDUP
NATIONAL WEATHER SERVICE CHEYENNE WY
1100 PM MDT THU MAY 24 2018

NOTE:  "FAIR" INDICATES FEW OR NO CLOUDS BELOW 12,000 FEET
WITH NO SIGNIFICANT WEATHER AND/OR OBSTRUCTIONS TO VISIBILITY.

WYZ001-250600-
YELLOWSTONE NATIONAL PARK

CITY           SKY/WX    TMP DP  RH WIND       PRES   REMARKS
LK YELLOWSTONE NOT AVBL
W YELLOWSTONE  NOT AVBL

$$
WYZ002>013-054>058-071-098>099-250600-
NORTHERN WYOMING

CITY           SKY/WX    TMP DP  RH WIND       PRES   REMARKS
JACKSON        FAIR      46  45  96 MISG        N/A
CODY           FAIR      61  44  53 CALM      30.10R
GREYBULL       CLOUDY    67  51  56 VRB5      30.00R
WORLAND        FAIR      59  54  83 CALM      30.01R
SHERIDAN       FAIR      58  52  80 CALM      29.97R
BUFFALO        FAIR      58  47  66 VRB6      30.04S
GILLETTE         N/A     53  49  86 S7        29.99S
NEWCASTLE      FAIR      59  46  63 CALM      29.99S

$$
WYZ014>020-022>026-101>103-250600-
CENTRAL WYOMING

CITY           SKY/WX    TMP DP  RH WIND       PRES   REMARKS
BIG PINEY      FAIR      50  41  71 N10       30.23F
PINEDALE       FAIR      43  41  93 NW5       30.25S
DUBOIS         FAIR      46  39  76 W8        30.24R
LANDER         FAIR      62  41  46 W13       30.11R
RIVERTON       FAIR      59  43  55 NW14      30.11R
CASPER         FAIR      53  48  83 SW6       30.08R
DOUGLAS        FAIR      57  50  77 CALM      30.07R

$$
WYZ021-027>030-104>119-250600-
SOUTHERN WYOMING

CITY           SKY/WX    TMP DP  RH WIND       PRES   REMARKS
EVANSTON       FAIR      56  39  53 E8        30.23R
FORT BRIDGER   FAIR      59  37  43 NE6       30.26S
ROCK SPRINGS   FAIR      57  40  52 N10       30.21R
DIXON          FAIR      55  36  48 NE10      30.23R
RAWLINS        FAIR      52  34  50 CALM      30.20S
SARATOGA       FAIR      50  36  57 SE7       30.23S
LARAMIE        FAIR      48  37  65 S9        30.23R
CHEYENNE       FAIR      59  44  57 NW6       30.16S
TORRINGTON     FAIR      64  53  67 CALM      30.01R
PINE BLUFFS    FAIR      52  46  82 W6        30.11S

$$



USA.gov is the U.S. government's official web portal to all federal, state and local government web resources and services.